Temp
88 87 88 91 94 92 91 89 90 90 80 85 86 87 86 84 85 83 87 87 92 92 91 92 92 90 90 89 89 88 87 85 90
90 87 86 89 92 93 91 89 84 88 83 85 87 88 86 86 85 85 89 88 88 91 91 93 90 89 89 89 89 88 88 84 87
91 91 87 89 91 92 93 93 89 87 86 87 87 89 88 88 85 85 87 87 86 88 90 90 89 89 88 89 88 88 86 89 89
91 91 89 90 91 92 92 94 89 88 86 85 87 89 88 88 88 89 88 88 87 87 88 88 88 87 87 88 89 88 85 86 87
91 90 90 88 91 92 92 91 89 85 85 83 89 89 88 88 88 88 88 88 88 88 87 88 88 88 88 88 88 88 86 87 90
90 89 89 89 89 89 90 90 88 87 86 87 90 89 90 89 88 88 88 88 88 88 87 87 88 87 87 87 87 88 88 87 88
87 88 88 89 88 88 88 89 87 86 86 88 87 88 89 87 87 87 87 88 86 87 87 85 86 86 87 87 88 88 89 89 87
84 85 87 88 90 88 87 87 87 88 88 86 87 86 85 86 86 87 86 86 84 87 87 87 86 86 87 88 88 91 88 88 87
81 82 84 85 87 88 88 87 87 87 87 87 87 85 85 85 85 84 84 85 85 85 85 85 85 85 86 86 90 78 73 79 88
79 81 81 83 84 85 87 88 88 87 87 87 85 85 85 85 84 83 83 84 84 84 84 85 85 85 86 85 87 71 70 70 83
80 80 81 81 84 86 88 90 91 89 89 86 85 84 85 86 85 84 84 83 83 83 84 83 84 85 85 85 87 64 65 68 81
81 82 83 84 86 86 85 85 88 88 87 87 86 85 85 86 85 85 84 83 83 84 84 84 84 85 85 85 79 60 61 67 85
82 84 84 84 85 87 89 88 89 87 86 85 85 86 86 87 86 85 84 84 84 85 85 85 89 87 86 75 74 58 58 66 85
81 82 83 84 85 85 86 86 85 83 87 87 88 89 88 86 86 85 86 85 85 85 85 87 84 83 80 81 77 69 56 57 79
80 80 82 83 83 83 86 86 84 82 82 86 86 86 87 86 85 87 87 84 84 84 83 81 77 75 76 78 75 63 57 55 57
79 80 81 83 81 81 83 85 83 80 81 82 82 84 84 85 85 85 86 83 83 83 78 77 75 75 77 77 78 75 56 56 58
78 78 78 81 80 80 80 82 83 82 82 81 81 81 83 85 79 79 84 87 85 78 77 78 78 78 79 81 81 81 81 79 79
78 78 78 78 77 77 78 81 80 82 82 81 79 80 80 72 70 71 68 70 77 80 81 77 80 78 82 81 80 78 63 65 78
77 76 76 75 75 76 78 80 80 80 81 80 76 74 77 79 77 73 70 68 65 55 54 51 51 52 65 69 59 50 48 47 45
74 76 75 74 74 75 75 76 77 79 80 80 77 76 80 80 74 80 78 76 75 71 59 50 48 48 47 47 54 47 45 45 44
MSLP
1003.49 1003.87 1004.32 1004.21 1004.74 1006.04 1007.00 1007.91 1008.72 1009.35 1010.49 1010.74 1011.52 1011.79 1012.16 1012.80 1013.58 1013.91 1013.96 1014.25 1013.64 1013.85 1014.06 1014.32 1014.71 1015.36 1015.53 1015.83 1016.09 1016.25 1016.36 1016.74 1016.37
1003.17 1004.03 1004.68 1004.88 1004.99 1005.56 1006.55 1007.49 1008.36 1009.19 1010.10 1010.35 1010.86 1011.22 1011.82 1012.19 1012.88 1013.42 1013.34 1013.69 1014.13 1013.84 1013.85 1013.93 1014.72 1015.10 1015.34 1015.45 1015.65 1015.82 1016.04 1016.21 1016.15
1003.13 1003.58 1004.55 1004.84 1005.27 1005.84 1006.47 1007.03 1008.08 1009.03 1009.50 1009.91 1010.27 1010.60 1011.27 1011.71 1012.47 1013.15 1013.45 1013.72 1013.97 1013.75 1013.77 1014.20 1014.48 1014.78 1015.18 1015.36 1015.45 1015.51 1015.71 1015.67 1015.67
1003.46 1003.71 1004.26 1004.71 1005.16 1005.89 1006.47 1006.89 1008.10 1008.74 1009.30 1009.71 1010.03 1010.27 1010.65 1011.26 1011.81 1012.33 1012.91 1013.13 1013.51 1013.81 1013.96 1014.05 1014.27 1014.65 1014.92 1014.89 1015.05 1015.24 1015.40 1015.42 1015.41
1003.95 1004.07 1004.36 1004.98 1005.22 1005.63 1006.17 1006.67 1007.63 1008.67 1009.30 1009.66 1009.70 1009.92 1010.48 1010.93 1011.45 1011.85 1012.18 1012.57 1012.92 1013.32 1013.63 1013.88 1014.10 1014.29 1014.47 1014.57 1014.78 1014.96 1015.16 1015.06 1014.79
1004.37 1004.53 1004.68 1004.94 1005.35 1005.75 1006.14 1006.65 1007.23 1007.98 1008.79 1009.14 1009.40 1009.62 1010.04 1010.50 1010.97 1011.35 1011.66 1012.03 1012.54 1012.92 1013.32 1013.59 1013.77 1013.97 1014.14 1014.27 1014.54 1014.65 1014.75 1014.82 1014.67
1004.93 1004.74 1004.98 1005.15 1005.44 1005.79 1006.20 1006.39 1006.97 1007.67 1008.24 1008.52 1008.92 1009.27 1009.53 1009.81 1010.40 1010.83 1011.24 1011.58 1012.23 1012.66 1012.98 1013.29 1013.51 1013.74 1013.91 1014.06 1014.14 1014.25 1014.30 1014.27 1014.38
1005.71 1005.53 1005.38 1005.52 1005.37 1005.68 1006.07 1006.39 1006.85 1007.45 1007.89 1008.61 1009.08 1009.24 1009.39 1009.55 1009.98 1010.44 1010.90 1011.27 1011.95 1012.11 1012.56 1012.86 1013.14 1013.40 1013.57 1013.66 1013.69 1013.65 1013.77 1013.81 1013.75
1006.48 1006.38 1006.23 1006.18 1005.94 1005.75 1005.92 1006.19 1006.48 1006.95 1007.45 1007.97 1008.56 1008.89 1009.12 1009.37 1009.66 1010.19 1010.51 1010.85 1011.31 1011.70 1012.08 1012.40 1012.60 1012.81 1013.00 1013.19 1013.21 1013.14 1013.58 1013.89 1013.52
1007.21 1007.08 1006.92 1006.66 1006.47 1006.38 1006.16 1006.13 1006.36 1006.57 1007.03 1007.46 1007.93 1008.42 1008.64 1009.05 1009.44 1009.77 1010.31 1010.65 1010.97 1011.28 1011.63 1011.94 1012.26 1012.55 1012.77 1012.92 1013.06 1013.25 1013.58 1013.96 1013.98
1007.77 1007.66 1007.54 1007.31 1006.91 1006.63 1006.44 1006.23 1006.04 1006.37 1006.66 1006.98 1007.40 1007.88 1008.11 1008.56 1009.13 1009.40 1009.75 1010.15 1010.35 1010.63 1011.00 1011.35 1011.70 1011.98 1012.24 1012.48 1012.73 1013.73 1013.94 1014.05 1013.82
1008.28 1008.10 1007.87 1007.73 1007.37 1007.05 1006.93 1006.78 1006.46 1006.35 1006.48 1006.70 1006.73 1006.96 1007.59 1007.88 1008.34 1008.88 1009.37 1009.80 1010.01 1010.29 1010.62 1010.88 1011.11 1011.38 1011.58 1011.91 1012.92 1013.78 1013.96 1013.79 1012.91
1008.55 1008.44 1008.34 1007.96 1007.64 1007.30 1006.81 1006.74 1006.59 1006.40 1006.33 1006.49 1006.49 1006.35 1006.62 1007.25 1007.66 1008.10 1008.43 1009.04 1009.50 1009.74 1009.98 1010.22 1010.61 1010.99 1011.16 1011.73 1012.71 1013.45 1013.72 1013.62 1012.94
1009.10 1008.93 1008.65 1008.35 1007.83 1007.34 1007.12 1007.10 1007.09 1006.76 1006.25 1006.07 1006.28 1006.41 1006.46 1006.60 1007.03 1007.63 1007.93 1008.28 1008.76 1009.26 1009.58 1009.61 1010.16 1010.82 1011.97 1012.15 1012.85 1014.17 1014.49 1014.19 1013.34
1009.21 1009.10 1008.87 1008.54 1008.14 1007.72 1007.33 1007.20 1007.18 1006.92 1006.66 1006.54 1006.47 1006.53 1006.33 1006.30 1006.45 1006.77 1007.24 1007.95 1008.47 1008.77 1009.29 1009.86 1010.46 1011.07 1011.93 1012.68 1013.17 1013.68 1014.71 1014.76 1014.45
1009.27 1009.23 1009.02 1008.75 1008.46 1007.99 1007.59 1007.26 1007.31 1007.16 1006.94 1006.85 1006.77 1006.52 1006.39 1006.39 1006.39 1006.27 1006.27 1006.90 1007.58 1008.25 1008.93 1009.60 1010.14 1010.65 1010.87 1011.70 1012.59 1013.47 1014.05 1014.43 1014.52
1009.08 1009.19 1009.10 1008.86 1008.57 1008.17 1007.65 1007.36 1007.31 1007.30 1007.11 1007.03 1006.71 1006.41 1006.14 1006.02 1006.44 1006.28 1006.37 1006.47 1006.68 1007.43 1007.88 1008.26 1008.99 1009.66 1009.88 1010.08 1010.86 1011.60 1012.54 1013.35 1013.38
1008.61 1008.66 1008.75 1008.74 1008.54 1008.19 1007.66 1007.35 1007.08 1007.02 1006.91 1006.89 1006.73 1006.40 1006.17 1006.89 1007.22 1007.39 1007.32 1007.60 1007.96 1007.48 1007.43 1007.64 1007.92 1008.72 1009.15 1009.54 1009.96 1010.66 1011.80 1013.09 1013.23
1008.05 1008.12 1008.22 1008.23 1008.14 1007.90 1007.44 1007.08 1006.77 1006.51 1006.58 1006.58 1006.80 1006.82 1006.48 1006.48 1006.95 1007.64 1008.14 1008.18 1009.11 1009.63 1009.69 1009.55 1009.17 1009.51 1009.84 1010.63 1010.35 1011.22 1011.02 1012.79 1013.93
1007.41 1007.59 1007.63 1007.60 1007.49 1007.40 1007.26 1006.90 1006.45 1006.10 1006.05 1006.10 1006.38 1006.58 1006.26 1006.16 1006.79 1006.80 1007.26 1007.63 1008.18 1009.25 1010.88 1010.93 1010.21 1010.54 1010.96 1011.35 1011.41 1011.14 1011.60 1011.76 1013.61
Wind_Speed
3 3 9 15 17 15 15 14 17 17 13 15 16 15 15 12 12 7 8 10 10 9 10 9 6 7 7 7 7 7 6 5 6
7 7 9 13 15 17 17 16 12 17 14 15 15 15 13 12 11 11 9 8 10 8 6 5 6 7 8 8 7 8 7 5 8
11 5 10 12 12 13 13 15 15 14 16 16 15 15 13 12 12 12 10 10 11 11 9 8 6 9 8 8 7 8 8 6 7
10 9 6 9 12 12 13 12 11 12 12 12 13 13 12 12 12 13 13 12 11 11 10 10 9 7 7 8 8 6 6 5 3
8 7 4 5 9 12 13 13 14 11 10 10 11 11 11 12 12 12 13 12 12 13 12 11 9 9 8 7 7 6 6 6 4
7 7 4 6 6 7 9 12 12 13 12 12 10 10 12 12 12 13 13 13 13 12 11 11 10 10 10 9 8 7 7 7 8
7 5 5 4 5 7 8 9 12 12 12 11 11 12 13 12 12 13 12 13 12 12 12 11 11 10 9 10 9 9 9 9 10
8 7 7 7 3 7 8 9 8 10 10 11 10 10 11 12 12 12 11 12 12 12 12 12 11 11 11 11 10 10 11 12 11
9 9 8 7 6 3 7 9 10 10 10 10 11 12 12 11 11 11 11 10 11 11 11 12 13 13 13 12 10 8 8 9 9
10 10 9 9 7 5 5 7 9 11 12 11 12 12 12 11 11 11 11 12 12 12 12 12 13 12 11 11 11 3 6 5 10
10 11 9 9 9 8 6 6 7 9 11 13 13 12 12 11 11 11 12 13 13 13 12 12 12 11 11 11 6 4 3 2 8
8 9 9 8 8 9 8 7 6 6 9 11 13 13 13 12 13 12 11 12 12 11 11 11 12 11 11 10 5 5 2 4 6
8 8 9 11 11 9 8 8 7 7 8 10 13 13 14 13 13 14 14 14 13 12 11 11 9 10 9 3 7 6 2 3 6
6 8 10 10 11 10 9 7 7 8 8 8 10 11 12 13 14 13 13 13 12 12 11 9 9 7 4 5 4 4 2 3 4
7 7 9 11 10 11 11 9 8 8 7 7 6 9 11 13 14 13 12 13 11 11 10 9 8 8 6 4 4 6 4 4 5
8 9 9 9 10 12 11 10 8 10 9 7 8 9 10 12 13 14 12 15 14 12 10 10 9 9 9 7 7 5 8 7 6
9 10 11 11 11 12 13 12 10 10 8 8 8 9 11 10 8 10 14 13 13 12 13 13 11 11 10 9 9 7 6 5 5
13 12 11 11 12 12 14 13 14 11 9 9 7 8 3 3 3 1 2 2 6 9 11 8 13 11 10 10 10 9 10 3 3
15 14 13 12 13 14 15 14 14 14 10 9 6 6 6 6 7 7 5 6 4 8 4 1 6 7 2 4 13 14 16 7 3
17 16 15 15 14 14 14 15 15 14 12 9 7 8 8 4 7 7 7 8 8 9 4 2 7 7 6 11 8 14 12 10 6
Wind_Direction
13 182 197 202 183 185 186 189 186 191 177 191 198 198 198 199 204 199 205 201 208 201 194 201 171 195 230 235 251 234 231 241 255
48 144 193 201 191 187 180 189 188 189 192 190 194 197 201 196 197 217 207 197 211 211 206 204 200 212 219 222 231 239 239 224 228
27 56 176 197 198 200 191 189 191 189 195 195 194 196 197 195 199 197 207 200 208 214 204 215 208 214 212 220 225 244 235 225 192
22 32 154 185 192 191 193 199 171 193 194 198 198 201 192 196 203 199 200 206 204 216 219 217 220 222 226 228 227 231 229 242 246
19 33 83 173 193 192 201 197 171 186 189 197 203 198 197 197 198 205 203 210 205 207 217 220 224 225 232 230 228 224 231 243 277
353 359 93 142 172 195 205 195 205 191 189 193 196 195 196 198 202 201 209 208 213 210 212 222 221 221 226 227 230 223 226 237 243
9 23 64 92 167 189 210 208 197 198 194 184 188 193 200 193 203 208 213 211 208 209 213 218 222 225 229 231 233 236 246 241 241
43 26 17 7 264 189 199 201 209 212 204 203 204 205 206 201 201 206 209 205 208 207 212 215 220 224 230 234 237 240 232 241 244
38 21 13 5 345 274 211 204 198 201 206 205 203 206 210 203 197 203 209 206 203 204 210 215 218 226 232 240 247 236 218 260 261
33 21 5 356 346 326 305 216 209 203 201 196 196 207 204 199 197 194 199 197 198 203 209 215 220 227 233 239 242 181 192 194 257
34 19 6 352 342 330 321 307 231 211 200 195 192 201 199 192 197 198 194 197 198 198 203 209 213 219 222 230 231 57 38 287 255
30 18 1 347 338 338 323 310 308 255 222 212 197 193 199 193 193 196 195 202 200 199 202 204 208 214 216 224 146 87 69 274 255
15 3 354 349 339 323 329 335 304 279 245 229 227 203 191 197 195 195 189 195 201 201 201 204 214 214 217 202 155 145 97 325 279
9 357 348 339 332 329 335 325 322 290 281 256 246 230 206 194 196 202 198 192 194 197 203 207 203 201 195 200 166 119 9 341 268
331 339 338 340 332 326 326 325 312 297 295 304 297 259 227 205 196 198 190 194 193 194 193 194 173 158 174 156 153 101 190 267 336
309 312 320 323 324 320 311 317 320 308 316 299 293 270 242 229 211 200 190 185 185 188 171 177 173 176 173 170 183 170 155 200 233
294 293 296 305 304 301 303 304 309 313 315 304 287 271 254 225 215 204 200 197 179 170 177 178 174 178 178 172 169 171 181 192 219
293 293 287 281 280 282 281 289 296 296 310 307 300 286 261 82 86 39 138 108 227 196 194 180 171 172 178 175 171 144 102 47 356
289 286 288 286 280 276 275 277 279 289 287 289 291 266 233 199 185 184 199 167 172 21 14 35 21 342 314 65 107 126 127 125 267
287 283 276 277 276 277 272 269 269 272 269 268 266 270 283 195 214 219 202 190 176 163 167 194 104 103 59 27 151 140 148 128 245